Regional Weather Roundup
Issued by NWS Little Rock, AR

Home | Current Version | Previous Version | Text Only | Print | Product List | Glossary Off
Versions: 1 2 3 4 5 6 7 8 9 10 11 12 13 14 15 16 17 18 19 20 21 22 23 24 25 26 27 28 29 30 31 32 33 34 35 36 37 38 39 40 41 42 43 44 45 46 47 48 49 50

000
ASUS44 KLZK 220905
RWRLZK

WEATHER ROUNDUP FOR ARKANSAS
NATIONAL WEATHER SERVICE LITTLE ROCK AR
400 AM CDT SAT APR 22 2017

NOTE: "FAIR" INDICATES FEW OR NO CLOUDS BELOW 12,000 FEET WITH NO
SIGNIFICANT WEATHER AND/OR OBSTRUCTIONS TO VISIBILITY.

ARZ001-003-010-029-221000-
NORTHWEST ARKANSAS

CITY           SKY/WX    TMP DP  RH WIND       PRES   REMARKS
FAYETTEVILLE   LGT RAIN  51  51 100 N5        29.87R FOG
FORT SMITH     LGT RAIN  58  55  90 NW9       29.86R FOG
HARRISON       LGT RAIN  48  48 100 E9        29.88R
BENTONVILLE    CLOUDY    50  46  87 N8        29.89R
ROGERS         LGT RAIN  48  48 100 N8        29.89R FOG
SILOAM SPGS    CLOUDY    50  46  87 N8        29.88R
HIGHFILL       CLOUDY    50  50 100 N9        29.88R FOG
$$

ARZ004-005-016-221000-
NORTH CENTRAL ARKANSAS

CITY           SKY/WX    TMP DP  RH WIND       PRES   REMARKS
BATESVILLE     CLOUDY    52  48  87 N5        29.88R
FLIPPIN        CLOUDY    50  45  81 NE5       29.86R
MTN HOME       CLOUDY    49  47  93 CALM      29.88R
$$

ARZ040-041-221000-
WEST CENTRAL ARKANSAS

CITY           SKY/WX    TMP DP  RH WIND       PRES   REMARKS
MENA           CLOUDY    63  61  94 W6        29.84R
MOUNT IDA      CLOUDY    60  58  92 CALM      29.80S
$$

ARZ009-017-025-026-028-221000-
NORTHEAST ARKANSAS

CITY           SKY/WX    TMP DP  RH WIND       PRES   REMARKS
JONESBORO      CLOUDY    52  50  93 E12       29.86R
NEWPORT        CLOUDY    52  50  93 E6        29.87R
WALNUT RIDGE   CLOUDY    52  46  82 NE8       29.87R
BLYTHEVILLE    LGT RAIN  53  53 100 E10G23    29.83F
$$

ARZ022-023-033-042-044-221000-
CENTRAL ARKANSAS

CITY           SKY/WX    TMP DP  RH WIND       PRES   REMARKS
LITTLE ROCK    CLOUDY    53  53 100 NE8       29.84S
N LITTLE ROCK    N/A     52  51  95 NE5       29.83F
JACKSONVILLE   CLOUDY    53  53  99 NE7       29.82F
CONWAY           N/A     54  52  94 E6        29.83F
SEARCY         CLOUDY    52  52 100 NE10      29.86F
HOT SPRINGS    CLOUDY    56  55  97 NE5       29.83S
RUSSELLVILLE   CLOUDY    54  52  93 CALM      29.85R
$$

ARZ036-221000-
EAST ARKANSAS

CITY           SKY/WX    TMP DP  RH WIND       PRES   REMARKS
WEST MEMPHIS   RAIN      54  32  43 NE3       29.86R
$$

ARZ050-053-066-070-073-221000-
SOUTHWEST ARKANSAS

CITY           SKY/WX    TMP DP  RH WIND       PRES   REMARKS
ARKADELPHIA    LGT RAIN  60  59  96 N8        29.81R
CAMDEN         HVY RAIN  68  66  94 NW7       29.80R
TEXARKANA      CLOUDY    70  68  93 W7        29.80S
EL DORADO      MOCLDY    69  67  93 SW9       29.80S
DE QUEEN       CLOUDY    63  63 100 NW5       29.80R
$$

ARZ056-057-069-221000-
SOUTHEAST ARKANSAS

CITY           SKY/WX    TMP DP  RH WIND       PRES   REMARKS
PINE BLUFF     RAIN      55  55 100 NE5       29.79F
STUTTGART      CLOUDY    55  45  67 NE18      29.82S
MONTICELLO     LGT RAIN  71  67  87 S9        29.79R

$$





USA.gov is the U.S. government's official web portal to all federal, state and local government web resources and services.